EHI
3 2 1 0 0 0 0 0 0 0 0 0 0 0 0 0 0 0 0 1 1 0 0 1 2 3 3 1 0 0 0 0 0 1 2 2 2 2 1 1 0 0 0 0 0 0 0 0 0
2 2 1 0 0 0 0 0 0 0 0 0 0 0 0 0 0 0 1 2 1 0 0 1 2 3 3 2 1 1 0 0 0 0 1 1 1 1 1 0 0 0 0 0 0 0 0 0 0
2 2 1 0 0 0 0 0 0 0 0 0 0 0 0 0 0 0 1 2 1 0 0 1 2 3 4 3 3 2 1 0 0 0 0 0 0 0 0 0 0 0 0 0 0 0 0 0 0
1 1 0 0 0 0 0 0 0 0 0 0 0 0 0 0 0 1 2 2 1 0 0 0 1 3 4 3 3 2 1 0 0 0 0 0 0 0 0 0 0 0 0 0 0 0 0 0 0
0 0 0 0 0 0 0 0 0 0 0 0 0 0 0 0 0 2 3 2 1 0 0 0 1 2 3 3 2 1 0 0 0 0 0 0 0 0 0 0 0 0 0 0 0 0 0 0 0
0 0 0 0 0 0 0 0 0 0 0 0 0 0 0 0 0 1 2 1 0 0 0 0 0 1 2 3 2 0 0 0 0 0 0 0 0 0 0 0 0 0 0 0 0 0 0 0 0
0 0 0 0 0 0 0 0 0 0 0 0 0 0 0 0 0 0 0 0 0 0 0 0 0 0 1 2 1 0 0 0 0 0 0 0 0 0 0 0 0 0 0 0 0 0 0 0 0
0 0 0 0 0 0 0 0 0 0 0 0 0 0 0 0 0 0 0 0 0 0 0 0 0 0 0 1 1 0 0 0 0 0 0 0 0 0 0 0 0 0 0 0 0 0 0 0 0
0 0 0 0 0 0 0 0 0 0 0 0 0 0 0 0 0 0 0 0 0 0 0 0 0 0 0 0 0 0 0 0 0 0 0 0 0 0 0 0 0 0 0 0 0 0 0 0 0
0 0 0 0 0 0 0 0 0 0 0 0 0 0 0 0 0 0 0 0 0 0 0 0 0 0 0 0 0 0 0 0 0 0 0 0 0 0 0 0 0 0 0 0 0 0 0 0 0
0 0 0 0 0 0 0 0 0 0 0 0 0 0 0 0 0 0 0 0 0 0 0 0 0 0 0 0 0 0 0 0 0 0 0 0 0 0 0 0 0 0 0 0 0 0 0 0 0
0 0 0 0 0 0 0 0 0 0 0 0 0 0 0 0 0 0 0 0 0 0 0 0 0 0 0 0 0 0 0 0 0 0 0 0 0 0 0 0 0 0 0 0 0 0 0 0 0
0 0 0 0 0 0 0 0 0 0 1 1 1 0 0 0 0 0 0 0 0 0 0 0 0 0 0 0 0 0 0 0 0 0 0 0 0 0 0 0 0 0 0 0 0 0 0 0 0
0 0 0 0 0 0 0 0 0 0 1 2 1 0 0 0 0 0 0 0 0 0 0 0 0 0 0 0 0 0 0 0 0 0 0 0 0 0 0 0 0 0 0 0 0 0 0 0 0
0 0 0 0 0 0 0 0 0 0 1 1 0 0 0 0 0 0 0 0 0 0 0 0 0 0 0 0 0 0 0 0 0 0 0 0 0 0 0 0 0 0 0 0 0 0 0 0 0
0 0 0 0 0 0 0 0 0 0 0 0 0 0 0 0 0 0 0 0 0 0 0 0 0 0 0 0 0 0 0 0 0 0 0 0 0 0 0 0 0 0 0 0 0 0 0 0 0
0 0 0 0 0 0 0 0 0 0 0 0 0 0 0 0 0 0 0 0 0 0 0 0 0 0 0 0 0 0 0 0 0 0 0 0 0 0 0 0 0 0 0 0 0 0 0 0 0
0 0 0 0 0 0 0 0 0 0 0 0 0 0 0 0 0 1 1 1 0 0 0 0 1 0 0 0 0 0 0 0 0 0 0 0 0 0 0 0 0 0 0 0 0 0 0 0 0
0 0 0 0 0 0 0 0 0 0 0 0 0 0 0 0 0 1 2 1 0 0 0 0 1 0 0 0 0 0 0 0 0 0 0 0 0 0 0 0 0 0 0 0 0 0 0 0 0
0 0 0 0 0 0 0 0 0 0 0 0 0 0 0 0 0 1 2 2 1 1 0 0 1 0 0 0 0 0 0 0 0 0 0 0 0 0 0 0 0 0 0 0 0 0 0 0 0
0 0 0 0 0 0 0 0 0 0 0 0 0 0 0 0 0 1 2 3 2 1 0 0 1 1 0 0 0 0 0 0 0 0 0 0 0 0 0 0 0 0 0 0 0 0 0 0 0
0 0 0 0 0 0 0 0 0 0 0 0 0 0 0 0 0 1 2 3 3 1 0 0 1 1 1 0 0 0 0 0 0 0 0 0 0 0 0 0 0 0 0 0 0 0 0 0 0
0 0 0 0 0 0 0 0 0 0 0 0 0 0 0 0 0 1 2 3 3 2 1 0 1 2 1 0 0 0 0 0 0 0 0 0 0 0 0 0 0 0 0 0 0 0 0 0 0
0 0 0 0 0 0 0 0 0 0 0 0 0 0 0 0 0 0 1 3 3 3 2 1 1 2 1 0 0 0 0 0 0 0 0 0 0 0 0 0 0 0 0 0 0 0 0 0 0
0 0 0 0 0 0 0 0 0 0 0 0 0 0 0 0 0 0 1 2 3 3 3 1 1 1 1 0 0 0 0 0 0 0 0 0 0 0 0 0 0 0 0 0 0 0 0 0 0
0 0 0 0 0 0 0 0 0 0 0 0 0 0 0 0 0 0 1 2 3 3 3 2 1 1 0 0 0 0 0 0 0 0 0 0 0 0 0 0 0 0 0 0 0 0 0 0 0
0 0 0 0 0 0 0 0 0 0 0 0 0 0 0 0 0 0 1 2 3 3 3 3 2 1 1 1 0 0 0 0 0 0 0 0 0 0 0 0 0 0 0 0 0 0 0 0 0
0 0 0 0 0 0 0 0 0 0 0 0 0 0 0 0 0 0 0 1 3 3 3 3 3 2 1 1 0 0 0 0 0 0 0 0 0 0 0 0 0 0 0 0 0 0 0 0 0
0 0 0 0 0 0 0 0 0 0 0 0 0 0 0 0 0 0 0 1 2 3 3 3 3 3 2 0 0 0 0 0 0 0 0 0 0 0 0 0 0 0 0 0 0 0 0 0 0
0 0 0 0 0 0 0 0 0 0 0 0 0 0 0 0 0 0 0 0 1 3 3 3 3 3 1 0 0 0 0 0 0 0 0 0 0 0 0 0 0 0 0 0 0 0 0 0 0
Wind_Speed
1 1 2 3 4 3 1 1 1 2 4 4 7 9 8 6 4 5 2 6 8 6 4 7 10 10 10 10 9 10 10 10 10 10 10 10 10 9 9 9 9 9 9 9 9 9 9 9 9
1 1 3 3 3 2 0 1 3 3 5 5 7 7 7 6 5 6 4 6 8 7 5 6 10 10 10 9 10 10 10 10 10 10 9 9 9 9 9 9 8 8 9 8 8 8 8 9 9
0 1 3 3 2 2 2 1 4 4 4 4 5 5 5 4 4 4 6 8 8 6 5 6 10 10 10 10 10 10 10 10 10 10 9 9 9 9 9 8 8 8 9 8 8 8 8 8 8
2 3 3 4 3 0 3 2 3 5 5 5 6 6 4 2 3 6 8 9 9 6 5 6 10 10 10 10 10 10 10 9 9 9 9 9 9 9 9 8 8 8 8 8 7 7 7 8 8
3 3 4 3 2 1 2 3 3 4 4 5 7 6 3 3 6 10 9 9 8 6 5 6 10 10 10 9 9 9 9 8 9 9 9 9 9 9 8 8 8 8 8 7 7 6 7 7 8
4 4 3 1 1 2 2 3 5 7 7 7 7 6 2 2 6 8 9 8 8 7 5 5 9 10 9 9 8 8 8 7 8 8 8 8 8 8 8 8 7 7 7 7 6 6 7 7 8
3 3 1 1 2 1 2 2 4 5 5 4 6 6 3 2 5 7 8 7 7 6 5 3 4 5 7 8 8 7 7 6 6 7 7 7 7 7 7 7 7 7 6 6 6 6 6 7 8
4 4 2 1 2 1 1 2 3 4 4 4 5 8 6 5 5 7 7 6 6 5 4 3 3 3 2 3 6 6 6 6 5 5 6 5 5 5 5 5 5 6 6 5 5 5 6 6 7
4 4 1 1 2 2 2 3 2 3 5 4 3 5 7 8 8 8 6 4 4 5 3 3 3 3 2 2 3 3 4 4 4 3 4 4 2 1 1 2 4 4 4 4 4 4 5 5 6
4 3 1 2 2 3 3 4 4 4 6 5 6 6 8 8 8 8 7 6 5 5 4 4 4 4 3 2 2 1 1 1 1 1 1 1 1 0 1 1 2 3 3 3 3 4 4 3 3
3 4 2 1 2 3 3 3 3 6 4 6 9 11 9 7 7 6 6 5 6 6 6 5 5 4 3 1 1 0 0 0 0 0 1 1 1 1 1 1 1 2 3 3 3 4 3 2 2
3 1 3 2 3 3 3 3 4 4 4 6 10 11 9 8 7 7 6 5 4 5 5 5 5 4 3 2 1 1 0 0 0 1 2 2 1 1 1 1 1 1 1 2 2 2 3 3 4
3 1 1 2 4 4 6 5 4 3 6 8 9 9 8 9 7 6 6 5 4 4 4 5 5 4 3 2 1 1 1 1 1 1 2 2 2 2 1 1 1 1 1 2 2 2 3 3 3
4 3 3 3 3 3 5 3 3 4 7 9 9 8 7 7 7 6 6 5 5 5 5 5 5 5 4 3 2 1 1 1 2 2 2 2 2 2 2 2 1 1 1 1 2 3 3 2 3
5 4 3 1 1 2 5 2 2 5 7 8 8 7 7 6 6 7 8 7 6 5 5 5 5 5 5 3 2 2 1 2 2 2 3 3 3 3 3 2 2 1 1 2 3 4 3 3 3
3 3 1 3 1 2 5 3 4 6 8 7 6 6 6 6 7 7 7 7 6 6 5 5 6 5 5 4 3 2 2 2 2 2 2 3 4 3 3 3 2 1 2 2 3 3 3 3 2
2 1 2 2 2 2 3 4 4 6 8 7 7 6 6 6 6 6 7 8 7 7 6 5 5 5 5 4 3 3 2 2 2 2 2 3 3 4 3 2 2 2 3 2 2 2 2 2 1
2 2 1 2 2 3 3 3 4 6 8 8 7 6 6 7 8 7 7 7 7 6 6 6 5 5 4 4 3 3 3 2 2 2 2 3 2 3 3 2 2 3 3 2 2 3 2 1 1
2 2 1 3 3 3 4 4 5 6 6 7 6 6 7 8 7 6 7 8 7 7 7 6 5 4 4 3 3 2 1 1 1 1 2 3 3 3 3 3 2 2 2 2 2 2 3 2 1
2 2 1 1 1 2 3 4 4 5 7 8 9 9 8 7 5 6 7 7 7 8 7 6 6 5 5 3 3 2 2 1 0 1 2 2 3 3 3 3 2 2 2 2 2 2 2 1 1
1 3 3 2 2 3 1 3 3 4 4 5 6 7 7 9 9 8 7 7 7 8 8 8 7 6 5 5 3 3 3 2 2 1 1 1 2 2 2 3 3 2 2 2 2 2 3 1 1
2 3 3 2 2 2 0 2 5 4 4 5 7 6 7 8 8 8 8 8 8 8 8 7 7 6 5 6 5 5 3 2 2 1 1 0 1 2 2 2 3 2 2 2 2 2 2 3 1
3 2 2 2 1 1 1 1 6 1 4 7 8 8 8 8 9 9 9 9 8 7 7 7 7 5 5 6 6 5 3 2 1 1 1 0 0 1 2 2 2 2 2 2 2 2 2 2 2
2 4 5 4 3 1 3 3 5 4 7 6 6 7 7 7 8 8 7 7 6 6 6 6 7 6 5 6 6 6 5 4 3 2 2 1 0 0 1 2 2 2 2 2 2 2 3 2 2
3 5 4 4 3 4 2 1 6 5 5 6 7 7 6 6 7 7 7 7 7 7 6 6 7 6 6 6 5 6 6 6 6 5 4 3 1 1 1 2 2 2 2 2 2 2 2 2 2
1 5 5 2 2 4 3 2 5 3 2 3 4 6 6 6 6 8 9 8 8 8 7 7 7 6 6 6 5 5 5 4 4 4 4 4 3 3 2 2 2 2 2 3 2 2 2 2 2
2 2 4 5 0 1 3 3 5 2 2 1 3 5 5 6 6 7 8 8 8 8 8 8 7 6 6 6 5 4 4 4 4 4 3 3 3 2 3 2 2 2 2 2 3 2 1 2 1
4 4 4 3 2 1 3 3 4 4 3 2 3 5 6 6 5 6 6 7 8 7 6 6 6 7 6 5 5 4 4 4 4 3 4 3 3 3 3 3 2 2 2 2 2 2 2 2 1
1 1 3 3 4 4 2 6 5 5 5 5 5 5 7 7 7 6 6 6 6 5 5 5 6 5 5 5 4 4 3 3 3 3 3 3 3 3 3 3 3 2 2 2 3 2 2 2 1
4 4 5 4 2 3 3 7 5 4 4 4 5 5 6 7 6 6 6 5 5 5 5 6 6 6 5 5 4 4 3 3 3 2 2 3 3 3 3 3 3 2 2 2 3 3 2 3 2
Wind_Direction
151 84 83 58 59 63 57 301 137 79 57 50 68 79 81 62 86 127 153 137 133 131 124 117 110 105 102 100 97 96 95 94 91 90 89 90 90 91 94 96 94 92 90 87 84 82 80 76 71
109 90 71 60 80 89 45 360 84 88 133 124 77 74 77 72 80 111 127 143 135 131 126 120 115 109 106 103 101 99 98 95 93 90 90 90 90 93 95 96 97 96 94 91 88 84 81 77 72
122 99 83 70 81 137 154 161 118 98 116 104 78 56 71 96 108 127 146 142 128 123 122 124 118 114 109 106 105 102 100 98 97 92 90 90 92 94 96 97 98 98 96 93 91 86 80 77 72
73 48 54 69 73 140 155 171 124 113 82 65 93 69 57 71 120 133 136 134 127 127 126 127 120 117 114 111 108 104 102 100 98 94 91 90 91 94 97 97 96 98 98 95 92 86 81 76 69
66 70 57 53 51 52 101 134 127 102 86 85 94 94 67 30 101 122 128 130 130 130 129 131 125 123 119 116 113 109 105 103 100 95 92 91 93 95 98 99 98 99 98 97 95 86 78 73 70
57 62 70 73 75 68 87 121 107 97 107 107 102 106 99 94 110 126 131 132 133 134 132 135 134 130 125 122 119 115 112 109 103 99 96 92 92 95 97 99 99 99 97 95 91 84 77 74 71
104 88 106 143 138 111 132 119 101 110 114 126 125 109 130 145 136 133 134 132 130 130 131 130 133 132 131 129 125 121 118 116 110 105 101 98 96 100 99 100 100 101 99 94 89 84 79 76 71
128 97 53 51 131 138 162 115 117 116 112 119 120 134 161 181 146 125 123 124 129 134 139 146 141 133 135 134 135 130 125 119 113 113 109 104 99 99 102 97 101 102 101 98 88 77 78 78 72
90 76 58 233 159 168 149 105 80 77 92 70 81 134 154 148 129 119 118 116 133 147 159 159 160 161 167 173 159 137 133 127 112 109 118 100 61 52 77 107 107 106 98 89 78 69 75 73 66
91 109 223 218 180 161 150 133 126 94 86 86 86 94 121 131 131 136 144 150 154 164 182 184 179 181 185 182 126 111 110 102 93 102 108 91 93 20 65 78 99 97 82 62 60 63 71 61 52
122 156 183 127 145 134 118 107 111 118 120 151 145 145 142 137 140 148 158 162 168 174 181 183 177 174 169 143 137 120 94 106 83 103 139 121 82 36 36 31 39 39 52 38 39 48 52 66 75
117 152 157 152 131 113 114 112 99 128 162 160 151 150 148 152 161 165 166 169 161 158 170 170 169 162 162 149 149 151 150 157 152 178 147 131 113 84 71 60 45 43 52 60 54 60 69 71 80
110 147 113 124 109 112 105 103 114 123 125 132 136 142 152 161 169 173 169 162 153 153 154 158 160 161 155 140 153 137 166 166 150 116 126 137 131 125 111 78 56 49 62 78 81 78 79 80 80
136 117 90 103 107 110 112 104 103 144 138 138 144 151 161 166 172 168 170 169 168 164 160 155 151 153 140 138 145 137 152 126 93 91 106 124 125 127 119 98 79 56 64 76 87 92 88 79 80
112 86 37 347 122 143 110 78 172 165 147 148 157 163 169 174 173 177 179 176 175 170 158 148 141 135 129 126 125 111 106 96 81 80 85 96 111 119 117 107 93 71 78 80 76 76 74 73 74
71 69 30 283 163 169 129 191 216 165 154 162 171 176 177 183 187 187 180 176 172 164 153 150 137 130 122 116 110 102 93 91 85 87 86 88 97 109 106 101 93 89 88 85 87 78 73 65 68
31 123 209 281 214 159 147 199 217 177 168 177 184 186 189 189 191 188 182 177 168 163 151 141 136 137 132 120 103 90 86 82 85 84 86 86 89 103 107 100 95 92 83 73 90 75 87 83 65
219 192 192 231 243 155 162 210 205 193 185 192 194 193 195 194 198 189 182 173 163 157 150 146 142 142 132 108 88 72 63 57 65 82 88 91 96 109 107 101 89 91 87 69 75 82 64 76 69
197 155 180 245 231 167 193 212 216 204 201 199 198 197 203 208 205 189 180 167 159 156 154 154 149 152 136 120 117 108 99 55 43 61 91 95 104 111 107 106 98 98 102 109 104 93 69 42 52
136 135 179 275 270 165 208 242 233 210 205 199 195 200 203 204 198 192 181 168 166 165 164 164 162 161 158 152 146 146 143 145 137 60 73 98 110 120 121 122 118 112 107 92 91 98 91 37 54
251 181 186 195 14 19 46 326 281 254 225 214 207 204 199 195 192 189 180 177 171 172 172 172 174 169 167 152 120 96 70 48 38 32 29 52 106 118 122 127 128 124 121 125 123 121 121 115 19
238 223 161 140 76 294 181 284 278 242 236 226 222 211 205 199 188 182 178 177 178 179 173 169 170 170 166 151 146 148 152 170 200 191 188 27 98 117 132 135 135 134 128 129 139 130 129 128 113
208 195 142 142 127 339 295 204 285 254 236 236 226 216 209 199 187 181 180 179 177 174 169 169 166 168 164 160 161 156 162 176 178 155 147 171 26 116 136 144 139 138 136 140 133 123 120 127 139
134 52 35 46 71 310 246 186 274 234 221 225 217 210 205 197 185 180 177 167 167 167 164 165 164 171 169 166 165 164 168 166 159 169 174 199 250 332 151 143 139 140 141 147 144 133 129 132 127
67 79 32 6 9 268 269 192 253 252 227 204 195 195 192 184 175 173 170 170 167 168 170 169 167 173 175 172 175 175 174 173 179 183 185 182 178 203 204 149 144 143 153 155 143 128 123 132 130
216 137 149 187 236 290 327 267 269 278 229 184 173 171 168 166 174 177 178 176 174 174 175 175 174 177 178 179 186 183 180 180 189 188 184 187 189 200 190 168 158 152 147 142 131 119 131 122 133
163 191 174 147 204 305 299 301 315 353 32 106 140 152 166 173 178 180 180 177 175 177 181 180 174 175 183 183 182 186 188 184 188 186 178 181 186 187 170 163 160 156 148 144 133 122 132 114 116
170 157 98 110 140 283 309 297 265 274 267 223 187 187 189 181 180 178 179 180 180 181 183 172 170 174 181 179 178 184 188 184 181 166 170 173 178 173 157 160 156 146 141 138 128 123 124 111 105
132 119 129 136 157 157 259 272 238 226 230 216 213 202 192 183 181 180 181 181 177 170 169 168 172 168 170 174 171 162 169 172 160 162 177 178 171 163 160 161 152 151 153 144 130 141 134 129 117
173 183 151 152 215 172 179 265 263 225 230 211 208 206 193 183 178 176 172 165 162 166 169 170 172 170 172 168 157 158 157 147 146 158 169 162 154 160 160 151 146 156 161 150 146 154 146 148 152